Showing default

EXPLORER 20, 870

Orbit data source: Space-Track

EXPLORER 20, 870 is a payload satellite owned by GSFC (US) in LEO that was launched on Tue, 25 Aug 1964 UTC via an SCOUT X-4 launch vehicle from the Air Force Western Test Range (AFWTR). Payload-class satellites include a variety of spacecraft equipped with specific instruments for various scientific and technological missions. These include communications satellites like Starlink; space stations such as the ISS; scientific satellites like the Hubble; Earth observation satellites from companies like Planet Labs, Umbra, and HawkEye 360; GPS; miniature CubeSats for education and research; and military/defense satellites.

Loading next visibility...
Identifier
870, 1964-051A
Orbit
LEO
Country
Flag of USUS
Related business
Manufacturer
Cutler-Hammer/AIL
Mission
Civil Science
Bus & Motor
S-48, Unknown motor
Mass
44 kg wet, 44 kg dry
Launch date (UTC)
1964-08-25 (61 years ago)
Launch vehicle
SCOUT X-4
Launch site
Air Force Western Test Range (AFWTR)
Object type
Payload
Rocket body
Debris
Shape & HBR
Double Cone + 6 Rod, 18.5 m
Radar Cross Section
0.292 m², Medium (>0.1 m² and < 1m²)

Expand to show TLE details & history
Last TLE update: 13 hours ago

TLE from 13 hours ago
0 EXPLORER 20
1 00870U 64051A   25259.19922718  .00000120  00000-0  86393-4 0  9999
2 00870  79.8978 216.8898 0096241 284.1191  74.9284 13.91711744 95326
Epoch: 2025-09-16T04:46Z
TLE epoch observation values (Epoch: 2025-09-16T04:46:53.228Z)
Latitude
-0.00007°
Longitude
149.77505°
Altitude
907.826 km
Speed
7.407 km/s
True Right ascension
14h 27m 33s
True Declination
0° 00' 00"
Sunlit
Object was in daylight at epoch
Visualization orbit readout
Latitude
Unknown
Longitude
Unknown
Altitude
Unknown
Speed
Unknown
Apparent Right ascension
Unknown
Apparent Declination
Unknown
Sunlit
N/A
Visualization observer readout
Local Sidereal Time
10:39:39
Azimuth
Unknown
Elevation
Unknown
Doppler factor
Unknown
Orbital elements
Apogee altitude
990.142 km
Perigee altitude
849.668 km
Semi-major axis
7,298.042 km
Eccentricity
0.00962
Inclination
79.8978°
RAAN
216.8898°
Arg. of periapsis
284.1191°
True anomaly
75.99658°
Mean anomaly
74.9284°
Eccentric anomaly
75.46216°
Mean motion
3.48124 °/min
Orbital period
103.41 mins
BSTAR
0.000086393
Loading maneuver chart data...
Computing Atmospheric mass density...
Loading historical data...
Loading historical data...
Loading historical data...
Loading historical data...
Loading historical data...
Loading historical data...
Loading historical data...

Documentation

Showing up to 5 results
|